GW1281 Weather Reports


Display with metric or nautical units.
time (UTC)temp
F
wind
direction
speed
MPH
gust
MPH
rain 1hr
in
rain 24hr
in
rain mn
in
humidity
%
barometer
mb
20260510115517 53 139 1.0 4.0 0.00 0.17 0.00 94 1013.0
20260510115017 53 134 1.0 4.0 0.00 0.17 0.00 94 1013.0
20260510114542 53 0 1.0 5.0 0.00 0.17 0.00 94 1013.0
20260510114018 52 176 0.0 5.0 0.00 0.17 0.00 93 1013.1
20260510113521 52 165 1.0 5.0 0.00 0.17 0.00 94 1012.8
20260510113039 53 0 0.0 2.0 0.00 0.17 0.00 94 1013.0
20260510112518 52 0 0.0 3.0 0.00 0.17 0.00 94 1013.1
20260510112017 53 160 0.0 3.0 0.00 0.17 0.00 94 1012.9
20260510111535 52 165 0.0 3.0 0.00 0.17 0.00 94 1012.8
20260510111018 52 143 0.0 2.0 0.00 0.17 0.00 94 1012.7
20260510110517 52 0 0.0 0.0 0.00 0.17 0.00 94 1012.9
20260510110041 51 0 0.0 0.0 0.00 0.17 0.00 94 1013.0
20260510105519 51 0 0.0 0.0 0.00 0.17 0.00 94 1013.0
20260510105019 51 0 0.0 0.0 0.00 0.17 0.00 93 1012.8
20260510104552 51 0 0.0 0.0 0.00 0.17 0.00 93 1012.7
20260510104017 51 0 0.0 0.0 0.00 0.17 0.00 93 1012.6
20260510103517 51 0 0.0 0.0 0.00 0.17 0.00 93 1012.4
20260510103040 51 0 0.0 0.0 0.00 0.17 0.00 93 1012.3
20260510102517 51 0 0.0 0.0 0.00 0.17 0.00 93 1012.2
20260510102019 51 0 0.0 0.0 0.00 0.17 0.00 93 1012.2
20260510101539 51 0 0.0 0.0 0.00 0.17 0.00 93 1012.2
20260510101018 51 0 0.0 2.0 0.00 0.17 0.00 93 1012.2
20260510100523 51 0 0.0 2.0 0.00 0.17 0.00 93 1012.3
20260510100034 51 0 0.0 2.0 0.00 0.17 0.00 93 1012.3
20260510095522 51 0 0.0 2.0 0.00 0.17 0.00 93 1012.1
20260510095018 51 0 0.0 0.0 0.00 0.17 0.00 93 1012.1
20260510094535 51 0 0.0 0.0 0.00 0.17 0.00 93 1012.2
20260510094017 51 0 0.0 2.0 0.00 0.17 0.00 93 1012.1
20260510093517 51 0 0.0 3.0 0.00 0.17 0.00 93 1012.1
20260510093047 51 152 1.0 3.0 0.00 0.17 0.00 93 1012.0
20260510092518 51 52 1.0 3.0 0.00 0.17 0.00 93 1012.0
20260510092017 50 0 0.0 1.0 0.00 0.17 0.00 93 1012.0
20260510091541 50 0 0.0 1.0 0.00 0.17 0.00 93 1012.1
20260510091017 50 0 0.0 2.0 0.00 0.17 0.00 93 1012.2
20260510090517 50 0 0.0 2.0 0.00 0.17 0.00 93 1012.0
20260510090039 50 0 0.0 4.0 0.00 0.17 0.00 93 1012.2
20260510085517 50 340 1.0 4.0 0.00 0.17 0.00 93 1012.2
20260510085017 50 0 1.0 4.0 0.00 0.17 0.00 93 1012.2
20260510084537 50 290 2.0 5.0 0.00 0.17 0.00 93 1012.3
20260510084018 50 315 0.0 8.0 0.00 0.17 0.00 93 1012.3
20260510083517 50 336 4.0 10.0 0.00 0.17 0.00 93 1012.3
20260510083045 50 352 3.0 10.0 0.00 0.17 0.00 93 1012.2
20260510082517 50 339 3.0 9.0 0.00 0.17 0.00 93 1012.2
20260510082017 50 348 4.0 8.0 0.00 0.17 0.00 93 1012.2
20260510081541 50 330 3.0 4.0 0.00 0.17 0.00 93 1012.1
20260510081018 50 0 0.0 0.0 0.00 0.17 0.00 93 1011.5
20260510080518 50 0 0.0 0.0 0.00 0.17 0.00 93 1011.5
20260510080034 50 0 0.0 0.0 0.00 0.17 0.00 92 1011.4
20260510075518 50 0 0.0 0.0 0.00 0.17 0.00 92 1011.3
20260510075017 51 0 0.0 0.0 0.00 0.17 0.00 92 1011.4
20260510074539 51 0 0.0 1.0 0.00 0.17 0.00 92 1011.3
20260510074020 51 0 0.0 1.0 0.00 0.17 0.00 92 1011.3
20260510073521 51 0 0.0 2.0 0.00 0.17 0.00 92 1011.3
20260510073034 51 0 0.0 3.0 0.00 0.17 0.00 92 1011.3
20260510072517 50 321 1.0 3.0 0.00 0.17 0.00 92 1011.4
20260510072021 51 321 0.0 3.0 0.00 0.17 0.00 92 1011.4
20260510071537 51 321 2.0 8.0 0.00 0.17 0.00 92 1011.3
20260510071016 51 317 2.0 8.0 0.00 0.17 0.00 92 1011.4
20260510070518 51 323 3.0 6.0 0.00 0.17 0.00 92 1011.5
20260510070036 51 347 3.0 5.0 0.00 0.17 0.00 92 1011.3
20260510065520 51 325 1.0 4.0 0.00 0.17 0.00 92 1011.1
20260510065021 50 338 2.0 4.0 0.00 0.17 0.00 92 1011.0
20260510064538 50 324 0.0 0.0 0.00 0.17 0.00 92 1010.9
20260510064018 50 0 0.0 0.0 0.00 0.17 0.00 91 1010.7
20260510063518 50 0 0.0 0.0 0.00 0.17 0.00 91 1010.7
20260510063041 50 0 0.0 0.0 0.00 0.17 0.00 91 1010.7
20260510062518 50 0 0.0 0.0 0.00 0.17 0.00 91 1010.7
20260510062017 50 0 0.0 0.0 0.00 0.17 0.00 91 1010.8
20260510061536 50 0 0.0 0.0 0.00 0.17 0.00 91 1010.8
20260510061017 50 0 0.0 0.0 0.00 0.17 0.00 91 1010.8
20260510060517 50 0 0.0 0.0 0.00 0.17 0.00 91 1010.8
20260510060037 50 0 0.0 0.0 0.00 0.17 0.00 91 1010.9
20260510055516 50 0 0.0 0.0 0.00 0.17 0.00 91 1010.9
20260510055017 50 0 0.0 0.0 0.00 0.17 0.00 91 1010.9
20260510054535 51 0 0.0 0.0 0.00 0.17 0.00 91 1011.0
20260510054016 51 0 0.0 0.0 0.00 0.17 0.00 91 1011.0
20260510053517 51 0 0.0 0.0 0.00 0.17 0.00 91 1011.2
20260510053035 51 0 0.0 0.0 0.00 0.17 0.00 91 1011.2
20260510052517 50 0 0.0 0.0 0.00 0.17 0.00 91 1011.2
20260510052017 51 0 0.0 0.0 0.00 0.17 0.00 90 1011.2
20260510051534 51 0 0.0 0.0 0.00 0.17 0.00 91 1011.3
20260510051017 51 0 0.0 0.0 0.00 0.17 0.00 91 1011.2
20260510050517 51 0 0.0 0.0 0.00 0.17 0.00 90 1011.2
20260510050043 51 0 0.0 0.0 0.00 0.17 0.00 90 1011.2
20260510045519 51 0 0.0 0.0 0.00 0.17 0.00 90 1011.3
20260510045017 51 0 0.0 0.0 0.00 0.17 0.00 90 1011.3
20260510044542 51 0 0.0 0.0 0.00 0.17 0.00 90 1011.3
20260510044017 51 0 0.0 0.0 0.00 0.17 0.00 90 1011.4
20260510043517 51 0 0.0 0.0 0.00 0.17 0.00 90 1011.5
20260510043037 52 0 0.0 0.0 0.00 0.17 0.00 90 1011.6
20260510042517 52 0 0.0 0.0 0.00 0.17 0.00 90 1011.5
20260510042020 52 0 0.0 0.0 0.00 0.17 0.00 90 1011.5
20260510041536 52 0 0.0 0.0 0.00 0.17 0.00 90 1011.4
20260510041017 52 0 0.0 0.0 0.00 0.17 0.00 90 1011.6
20260510040517 52 0 0.0 0.0 0.00 0.17 0.00 90 1011.5
20260510040037 52 0 0.0 0.0 0.00 0.17 0.00 90 1011.6
20260510035518 52 0 0.0 0.0 0.00 0.17 0.17 90 1011.6
20260510035016 52 0 0.0 0.0 0.00 0.17 0.17 90 1011.6
20260510034534 52 0 0.0 0.0 0.00 0.17 0.17 90 1011.6
20260510034017 52 0 0.0 0.0 0.00 0.17 0.17 90 1011.5
20260510033517 52 0 0.0 0.0 0.00 0.17 0.17 90 1011.4
20260510033051 53 0 0.0 0.0 0.00 0.17 0.17 90 1011.3
20260510032517 53 0 0.0 0.0 0.00 0.17 0.17 90 1011.2
20260510032018 53 0 0.0 0.0 0.00 0.17 0.17 90 1011.3
20260510031540 53 0 0.0 0.0 0.00 0.17 0.17 90 1011.2
20260510031016 53 0 0.0 0.0 0.00 0.17 0.17 90 1011.0
20260510030517 53 0 0.0 0.0 0.00 0.17 0.17 90 1011.0
20260510030035 53 0 0.0 0.0 0.00 0.17 0.17 90 1011.0
20260510025518 53 0 0.0 0.0 0.00 0.17 0.17 90 1010.8
20260510025018 53 0 0.0 0.0 0.00 0.17 0.17 89 1010.9
20260510024536 53 0 0.0 0.0 0.00 0.17 0.17 89 1010.9
20260510024017 53 0 0.0 0.0 0.00 0.17 0.17 89 1010.9
20260510023521 54 0 0.0 0.0 0.00 0.17 0.17 89 1010.9
20260510023042 54 0 0.0 1.0 0.00 0.17 0.17 89 1010.9
20260510022520 54 0 0.0 1.0 0.00 0.17 0.17 89 1010.8
20260510022018 54 0 0.0 1.0 0.00 0.17 0.17 89 1010.8
20260510021539 54 0 0.0 1.0 0.00 0.17 0.17 89 1010.8
20260510021018 54 0 0.0 1.0 0.00 0.17 0.17 89 1010.8
20260510020517 54 0 0.0 3.0 0.00 0.17 0.17 89 1010.7
20260510020035 54 0 0.0 3.0 0.00 0.17 0.17 89 1010.8
20260510015521 55 167 0.0 0.0 0.00 0.17 0.17 88 1010.7
20260510015016 55 0 0.0 0.0 0.00 0.17 0.17 88 1010.6
20260510014534 55 0 0.0 0.0 0.00 0.17 0.17 88 1010.6
20260510014019 55 0 0.0 0.0 0.00 0.17 0.17 88 1010.6
20260510013518 55 0 0.0 0.0 0.00 0.17 0.17 88 1010.7
20260510013042 55 0 0.0 0.0 0.00 0.17 0.17 88 1010.7
20260510012519 55 0 0.0 0.0 0.00 0.17 0.17 88 1010.7
20260510012016 55 0 0.0 0.0 0.00 0.17 0.17 87 1010.6
20260510011534 55 0 0.0 1.0 0.00 0.17 0.17 88 1010.6
20260510011019 55 0 0.0 3.0 0.00 0.17 0.17 88 1010.6
20260510010518 56 0 0.0 4.0 0.00 0.17 0.17 87 1010.6
20260510010041 56 167 1.0 4.0 0.00 0.17 0.17 87 1010.5
20260510005518 56 125 0.0 3.0 0.00 0.17 0.17 87 1010.5
20260510005020 56 132 0.0 3.0 0.00 0.17 0.17 87 1010.4
20260510004536 56 0 0.0 0.0 0.00 0.17 0.17 86 1010.3
20260510004018 56 0 0.0 0.0 0.00 0.17 0.17 86 1010.2
20260510003517 56 0 0.0 0.0 0.00 0.17 0.17 86 1010.4
20260510003035 56 0 0.0 0.0 0.00 0.17 0.17 86 1010.4
20260510002517 56 0 0.0 0.0 0.00 0.17 0.17 86 1010.4
20260510002017 57 0 0.0 0.0 0.00 0.17 0.17 85 1010.3
20260510001541 57 0 0.0 0.0 0.00 0.17 0.17 85 1010.3
20260510001018 57 0 0.0 0.0 0.00 0.17 0.17 85 1010.3
20260510000518 57 0 0.0 0.0 0.00 0.17 0.17 85 1010.2
20260510000044 57 0 0.0 0.0 0.00 0.17 0.17 85 1010.3
20260509235517 57 0 0.0 0.0 0.00 0.17 0.17 85 1010.3
20260509235017 57 0 0.0 0.0 0.00 0.17 0.17 85 1010.2
20260509234544 57 0 0.0 0.0 0.00 0.17 0.17 85 1010.3
20260509234019 58 0 0.0 0.0 0.00 0.17 0.17 85 1010.3
20260509233517 58 0 0.0 0.0 0.00 0.17 0.17 85 1010.4
20260509233040 58 0 0.0 0.0 0.00 0.17 0.17 85 1010.3
20260509232517 58 0 0.0 0.0 0.00 0.17 0.17 85 1010.3
20260509232022 58 0 0.0 0.0 0.00 0.17 0.17 85 1010.3
20260509231534 58 0 0.0 1.0 0.00 0.17 0.17 85 1010.3
20260509231016 58 0 0.0 2.0 0.00 0.17 0.17 86 1010.2
20260509230518 58 0 0.0 3.0 0.00 0.17 0.17 86 1010.2
20260509230050 58 0 0.0 3.0 0.00 0.17 0.17 86 1010.1
20260509225520 58 0 0.0 3.0 0.00 0.17 0.17 86 1010.2
20260509225016 57 0 1.0 3.0 0.00 0.17 0.17 86 1010.2
20260509224545 57 0 0.0 3.0 0.00 0.17 0.17 87 1010.2
20260509224017 57 0 0.0 3.0 0.00 0.17 0.17 87 1010.3
20260509223517 57 136 0.0 5.0 0.00 0.17 0.17 87 1010.3
20260509223047 57 0 1.0 5.0 0.00 0.17 0.17 87 1010.3
20260509222518 57 163 2.0 6.0 0.00 0.17 0.17 87 1010.3
20260509222017 57 168 2.0 6.0 0.00 0.17 0.17 87 1010.2
20260509221537 57 133 2.0 6.0 0.00 0.17 0.17 87 1010.2
20260509221017 57 131 2.0 6.0 0.00 0.17 0.17 87 1010.2
20260509220517 57 136 2.0 6.0 0.01 0.17 0.17 87 1010.2
20260509220036 57 157 2.0 6.0 0.01 0.17 0.17 87 1010.3
20260509215517 56 121 3.0 6.0 0.01 0.17 0.17 87 1010.3
20260509215017 56 113 2.0 5.0 0.01 0.17 0.17 87 1010.3
20260509214539 57 129 2.0 5.0 0.01 0.17 0.17 87 1010.3
20260509214020 56 171 1.0 4.0 0.05 0.17 0.17 87 1010.4
20260509213517 56 139 2.0 4.0 0.11 0.17 0.17 87 1010.4
20260509213035 56 186 1.0 4.0 0.12 0.17 0.17 87 1010.6
20260509212518 56 132 2.0 4.0 0.12 0.17 0.17 87 1010.6
20260509212021 56 0 0.0 4.0 0.12 0.17 0.17 87 1010.8
20260509211534 57 161 2.0 4.0 0.12 0.17 0.17 87 1010.7
20260509211017 57 161 0.0 2.0 0.12 0.17 0.17 88 1010.7
20260509210519 57 0 0.0 4.0 0.11 0.16 0.16 88 1010.6
20260509210047 57 0 0.0 4.0 0.11 0.16 0.16 88 1010.6
20260509205517 57 164 0.0 4.0 0.11 0.16 0.16 88 1010.5
20260509205018 56 164 1.0 4.0 0.11 0.16 0.16 88 1010.4
20260509204536 56 346 1.0 4.0 0.11 0.16 0.16 87 1010.5
20260509204017 56 0 1.0 4.0 0.05 0.10 0.10 87 1010.4
20260509203516 56 0 2.0 4.0 0.00 0.05 0.05 87 1010.6
20260509203048 56 0 1.0 4.0 0.00 0.05 0.05 87 1010.4
20260509202517 56 5 1.0 3.0 0.01 0.05 0.05 87 1010.2
20260509202017 56 360 1.0 6.0 0.01 0.05 0.05 87 1010.3
20260509201534 56 0 2.0 6.0 0.01 0.05 0.05 87 1010.3
20260509201019 56 334 3.0 6.0 0.01 0.05 0.05 87 1010.5
20260509200517 57 325 2.0 6.0 0.01 0.05 0.05 88 1010.6
20260509200044 57 5 1.0 6.0 0.01 0.05 0.05 88 1010.3
20260509195517 56 306 1.0 6.0 0.01 0.05 0.05 87 1010.5
20260509195016 56 344 1.0 5.0 0.01 0.05 0.05 87 1010.7
20260509194541 56 0 1.0 6.0 0.01 0.05 0.05 87 1010.8
20260509194017 56 12 2.0 8.0 0.01 0.05 0.05 87 1010.8
20260509193516 56 322 3.0 8.0 0.01 0.05 0.05 86 1010.9
20260509193040 57 333 4.0 8.0 0.02 0.05 0.05 87 1011.1
20260509192517 57 329 2.0 5.0 0.01 0.04 0.04 87 1011.1
20260509192017 57 332 1.0 5.0 0.02 0.04 0.04 87 1011.1
20260509191543 57 336 3.0 7.0 0.02 0.04 0.04 86 1011.2
20260509191017 57 329 3.0 7.0 0.02 0.04 0.04 86 1011.4
20260509190517 57 352 2.0 8.0 0.03 0.04 0.04 86 1011.4
20260509190034 57 326 4.0 8.0 0.03 0.04 0.04 86 1011.5
20260509185517 57 352 3.0 6.0 0.03 0.04 0.04 86 1011.5
20260509185018 57 12 3.0 6.0 0.04 0.04 0.04 86 1011.4
20260509184544 57 334 2.0 5.0 0.04 0.04 0.04 86 1011.5
20260509184019 57 297 2.0 5.0 0.04 0.04 0.04 86 1011.3
20260509183517 57 331 2.0 8.0 0.04 0.04 0.04 85 1011.4
20260509183046 57 15 3.0 8.0 0.03 0.03 0.03 84 1011.6
20260509182518 57 350 3.0 6.0 0.03 0.03 0.03 83 1011.6
20260509182017 57 340 2.0 8.0 0.02 0.02 0.02 83 1011.7
20260509181604 57 348 2.0 8.0 0.02 0.02 0.02 82 1011.7
20260509181024 57 315 3.0 8.0 0.02 0.02 0.02 81 1011.7
20260509180517 58 321 3.0 8.0 0.01 0.01 0.01 80 1011.7
20260509180109 58 328 3.0 10.0 0.01 0.01 0.01 79 1011.8
20260509175518 58 315 5.0 15.0 0.01 0.01 0.01 77 1011.8
20260509175017 59 292 4.0 15.0 0.00 0.00 0.00 76 1011.7
20260509174535 59 321 5.0 12.0 0.00 0.00 0.00 74 1011.7
20260509174017 59 330 6.0 12.0 0.00 0.00 0.00 73 1011.7
20260509173516 60 327 5.0 8.0 0.00 0.00 0.00 72 1011.6
20260509173042 60 335 3.0 8.0 0.00 0.00 0.00 72 1011.4
20260509172520 60 348 2.0 5.0 0.00 0.00 0.00 73 1011.3
20260509172017 59 0 1.0 7.0 0.00 0.00 0.00 74 1011.4
20260509171543 59 304 3.0 7.0 0.00 0.00 0.00 74 1011.4
20260509171017 59 303 3.0 9.0 0.00 0.00 0.00 75 1011.4
20260509170517 59 292 3.0 9.0 0.00 0.00 0.00 75 1011.4
20260509170049 59 343 4.0 9.0 0.00 0.00 0.00 77 1011.5
20260509165518 60 300 5.0 9.0 0.00 0.00 0.00 78 1011.5
20260509165017 60 288 4.0 9.0 0.00 0.00 0.00 79 1011.5
20260509164540 60 304 3.0 9.0 0.00 0.00 0.00 78 1011.5
20260509164017 60 336 5.0 10.0 0.00 0.00 0.00 77 1011.5
20260509163523 60 327 4.0 10.0 0.00 0.00 0.00 77 1011.5
20260509163038 60 322 5.0 10.0 0.00 0.00 0.00 75 1011.5
20260509162517 60 308 4.0 10.0 0.00 0.00 0.00 75 1011.5
20260509162018 60 292 5.0 10.0 0.00 0.00 0.00 74 1011.6
20260509161541 61 297 4.0 11.0 0.00 0.00 0.00 73 1011.7
20260509161016 61 300 5.0 11.0 0.00 0.00 0.00 73 1011.9
20260509160517 62 284 5.0 9.0 0.00 0.00 0.00 71 1012.0
20260509160036 62 296 4.0 10.0 0.00 0.00 0.00 69 1011.9
20260509155517 63 302 5.0 10.0 0.00 0.00 0.00 68 1012.0
20260509155017 63 325 5.0 10.0 0.00 0.00 0.00 67 1012.1
20260509154534 63 194 2.0 10.0 0.00 0.00 0.00 67 1012.2
20260509154020 63 162 4.0 10.0 0.00 0.00 0.00 66 1012.0
20260509153518 63 327 3.0 13.0 0.00 0.00 0.00 67 1011.9
20260509153041 63 300 5.0 13.0 0.00 0.00 0.00 67 1012.1
20260509152517 63 317 3.0 8.0 0.00 0.00 0.00 66 1012.1
20260509152019 63 316 2.0 8.0 0.00 0.00 0.00 67 1012.2
20260509151542 63 273 3.0 11.0 0.00 0.00 0.00 66 1012.2
20260509151017 63 0 4.0 11.0 0.00 0.00 0.00 66 1012.2
20260509150520 63 230 3.0 9.0 0.00 0.00 0.00 66 1012.1
20260509150039 63 264 2.0 9.0 0.00 0.00 0.00 66 1012.1
20260509145517 62 234 2.0 9.0 0.00 0.00 0.00 66 1012.1
20260509145017 62 210 3.0 11.0 0.00 0.00 0.00 66 1012.0
20260509144535 62 204 4.0 11.0 0.00 0.00 0.00 66 1012.0
20260509144019 62 186 3.0 10.0 0.00 0.00 0.00 66 1012.0
20260509143519 62 251 5.0 10.0 0.00 0.00 0.00 66 1011.9
20260509143039 62 298 2.0 9.0 0.00 0.00 0.00 67 1012.0
20260509142516 62 173 5.0 9.0 0.00 0.00 0.00 67 1011.9
20260509142020 62 243 2.0 8.0 0.00 0.00 0.00 68 1011.7
20260509141542 62 243 2.0 6.0 0.00 0.00 0.00 69 1011.9
20260509141017 62 282 1.0 7.0 0.00 0.00 0.00 70 1011.9
20260509140517 61 316 2.0 11.0 0.00 0.00 0.00 70 1011.9
20260509140041 61 194 5.0 11.0 0.00 0.00 0.00 70 1011.7
20260509135520 61 194 5.0 11.0 0.00 0.00 0.00 70 1011.8
20260509135019 61 259 4.0 12.0 0.00 0.00 0.00 71 1011.7
20260509134540 61 265 6.0 12.0 0.00 0.00 0.00 71 1011.7
20260509134017 61 225 6.0 12.0 0.00 0.00 0.00 72 1011.6
20260509133517 61 145 5.0 12.0 0.00 0.00 0.00 72 1011.6
20260509133051 60 242 5.0 12.0 0.00 0.00 0.00 72 1011.7
20260509132517 60 232 3.0 10.0 0.00 0.00 0.00 73 1011.9
20260509132018 60 225 5.0 10.0 0.00 0.00 0.00 74 1011.8
20260509131534 60 161 4.0 9.0 0.00 0.00 0.00 74 1011.7
20260509131016 60 158 5.0 10.0 0.00 0.00 0.00 74 1011.8
20260509130519 60 245 4.0 10.0 0.00 0.00 0.00 75 1011.8
20260509130040 60 202 3.0 9.0 0.00 0.00 0.00 75 1011.9
20260509125523 59 228 4.0 9.0 0.00 0.00 0.00 76 1011.9
20260509125018 59 197 3.0 9.0 0.00 0.00 0.00 76 1012.0
20260509124545 59 205 3.0 9.0 0.00 0.00 0.00 76 1012.1
20260509124017 59 213 3.0 9.0 0.00 0.00 0.00 77 1012.0
20260509123517 58 159 2.0 9.0 0.00 0.00 0.00 77 1012.0
20260509123041 58 204 3.0 9.0 0.00 0.00 0.00 78 1012.1
20260509122516 58 248 2.0 6.0 0.00 0.00 0.00 78 1012.0
20260509122017 57 164 1.0 6.0 0.00 0.00 0.00 78 1011.9
20260509121536 57 145 2.0 5.0 0.00 0.00 0.00 78 1012.0
20260509121017 57 167 1.0 5.0 0.00 0.00 0.00 78 1012.0
20260509120522 56 139 1.0 4.0 0.00 0.00 0.00 78 1012.1
20260509120034 56 0 1.0 6.0 0.00 0.00 0.00 78 1012.0